Blakely, GA

11:19 AM EST on February 06, 2016 (GMT -0500)
Blakely

Weather History for KBIJ - November, 2012

Change the Weather History Date:

Wednesday, November 7, 2012

  Actual Average (KDHN) Record (KDHN)
Temperature  
Mean Temperature 55 °F 61 °F  
Max Temperature 64 °F 74 °F 84 °F (1938)
Min Temperature 46 °F 49 °F 30 °F (2010)
Degree Days  
Heating Degree Days 10 5  
Month to date heating degree days 34  
Since 1 July heating degree days 93  
Growing Degree Days 5 (Base 50)    
Moisture  
Dew Point 46 °F    
Average Humidity 74    
Maximum Humidity 100    
Minimum Humidity 39    
Precipitation  
Precipitation 0.00 in 0.11 in 1.84 in (1943)
Month to date precipitation 0.64  
Year to date precipitation 46.03  
Sea Level Pressure  
Sea Level Pressure 29.98 in    
Wind  
Wind Speed 3 mph (NW)    
Max Wind Speed 13 mph    
Max Gust Speed 20 mph    
Visibility 10 miles    
Events      
T = Trace of Precipitation, MM = Missing Value Source: NWS Daily Summary

Daily Weather History Graph

Daily Weather History Graph

Search for Another Location

Airport or City:

Trip Planner

Search our weather history database for the weather conditions in past years. The results will help you decide how hot, cold, wet, or windy it might be!

Date:

Astronomy

Nov. 07, 2012 Rise Set
Actual Time 7:00 AM EST 5:45 PM EST
Civil Twilight 6:35 AM EST 6:10 PM EST
Nautical Twilight 6:06 AM EST 6:39 PM EST
Astronomical Twilight 5:37 AM EST 7:08 PM EST
Moon 12:19 AM EST (11/7) 1:30 PM EST (11/7)
Length of Visible Light 11h 35m
Length of Day
10h 44m
Last Quarter, 43% of the Moon is Illuminated
Nov 7
Last Quarter
Nov 13
New
Nov 20
First Quarter
Nov 28
Full
Dec 6
Last Quarter

Hourly Weather History & Observations

Time (EST) Temp. Windchill Dew Point Humidity Pressure Visibility Wind Dir Wind Speed Gust Speed Precip Events Conditions
12:15 AM 51.8 °F - 51.8 °F 100% 29.97 in 10.0 mi Calm Calm - N/A   Overcast
12:35 AM 51.8 °F - 50.0 °F 94% 29.97 in 10.0 mi Calm Calm - N/A   Overcast
12:55 AM 51.8 °F - 50.0 °F 94% 29.96 in 10.0 mi Calm Calm - N/A   Overcast
1:15 AM 51.8 °F - 50.0 °F 94% 29.96 in 10.0 mi Calm Calm - N/A   Overcast
1:35 AM 51.8 °F - 50.0 °F 94% 29.96 in 10.0 mi Calm Calm - N/A   Overcast
1:55 AM 51.8 °F - 50.0 °F 94% 29.97 in 10.0 mi NNW 3.5 mph - N/A   Overcast
2:15 AM 51.8 °F - 50.0 °F 94% 29.96 in 10.0 mi Calm Calm - N/A   Overcast
2:35 AM 51.8 °F - 50.0 °F 94% 29.97 in 10.0 mi Calm Calm - N/A   Overcast
2:55 AM 51.8 °F - 50.0 °F 94% 29.95 in 10.0 mi Calm Calm - N/A   Overcast
3:15 AM 51.8 °F - 50.0 °F 94% 29.96 in 10.0 mi Calm Calm - N/A   Overcast
3:55 AM 51.8 °F - 50.0 °F 94% 29.95 in 10.0 mi Calm Calm - N/A   Overcast
4:15 AM 51.8 °F - 50.0 °F 94% 29.95 in 10.0 mi Calm Calm - N/A   Overcast
4:35 AM 50.0 °F - 50.0 °F 100% 29.95 in 10.0 mi Calm Calm - N/A   Overcast
4:55 AM 50.0 °F - 50.0 °F 100% 29.96 in 10.0 mi Calm Calm - N/A   Overcast
5:15 AM 50.0 °F - 50.0 °F 100% 29.97 in 10.0 mi West 3.5 mph - N/A   Overcast
5:35 AM 50.0 °F - 50.0 °F 100% 29.97 in 10.0 mi Calm Calm - N/A   Overcast
5:55 AM 50.0 °F - 50.0 °F 100% 29.97 in 10.0 mi Calm Calm - N/A   Overcast
6:15 AM 50.0 °F - 50.0 °F 100% 29.97 in 10.0 mi Calm Calm - N/A   Overcast
6:35 AM 50.0 °F - 50.0 °F 100% 29.97 in 10.0 mi Calm Calm - N/A   Overcast
6:55 AM 50.0 °F - 48.2 °F 94% 29.97 in 10.0 mi Calm Calm - N/A   Mostly Cloudy
7:15 AM 48.2 °F - 46.4 °F 93% 29.97 in 10.0 mi Calm Calm - N/A   Scattered Clouds
7:35 AM 46.4 °F - 46.4 °F 100% 29.97 in 7.0 mi Calm Calm - N/A   Clear
7:55 AM 48.2 °F - 48.2 °F 100% 29.98 in 7.0 mi Calm Calm - N/A   Clear
8:15 AM 50.0 °F - 50.0 °F 100% 29.99 in 10.0 mi West 5.8 mph - N/A   Clear
8:35 AM 51.8 °F - 50.0 °F 94% 29.99 in 10.0 mi WNW 6.9 mph - N/A   Scattered Clouds
8:55 AM 51.8 °F - 50.0 °F 94% 30.00 in 10.0 mi WNW 8.1 mph - N/A   Mostly Cloudy
9:15 AM 53.6 °F - 50.0 °F 88% 30.00 in 10.0 mi NW 5.8 mph - N/A   Scattered Clouds
9:35 AM 55.4 °F - 50.0 °F 82% 30.00 in 10.0 mi NW 6.9 mph - N/A   Scattered Clouds
9:55 AM 55.4 °F - 50.0 °F 82% 30.00 in 10.0 mi NNW 6.9 mph - N/A   Mostly Cloudy
10:15 AM 57.2 °F - 50.0 °F 77% 30.00 in 10.0 mi NW 4.6 mph - N/A   Scattered Clouds
10:35 AM 57.2 °F - 48.2 °F 72% 29.99 in 10.0 mi NW 5.8 mph - N/A   Mostly Cloudy
10:55 AM 59.0 °F - 48.2 °F 67% 29.99 in 10.0 mi West 6.9 mph - N/A   Mostly Cloudy
11:15 AM 59.0 °F - 46.4 °F 63% 29.99 in 10.0 mi WNW 8.1 mph - N/A   Scattered Clouds
11:35 AM 59.0 °F - 46.4 °F 63% 29.98 in 10.0 mi NW 8.1 mph 17.3 mph N/A   Scattered Clouds
11:55 AM 60.8 °F - 46.4 °F 59% 29.97 in 10.0 mi NW 10.4 mph 18.4 mph N/A   Scattered Clouds
12:15 PM 60.8 °F - 46.4 °F 59% 29.96 in 10.0 mi NNW 4.6 mph - N/A   Scattered Clouds
12:35 PM 60.8 °F - 44.6 °F 55% 29.95 in 10.0 mi NW 10.4 mph 16.1 mph N/A   Scattered Clouds
12:55 PM 62.6 °F - 42.8 °F 48% 29.94 in 10.0 mi NW 11.5 mph 18.4 mph N/A   Clear
1:15 PM 62.6 °F - 42.8 °F 48% 29.93 in 10.0 mi NW 10.4 mph 19.6 mph N/A   Scattered Clouds
1:35 PM 62.6 °F - 39.2 °F 42% 29.93 in 10.0 mi NW 12.7 mph 18.4 mph N/A   Scattered Clouds
1:55 PM 60.8 °F - 39.2 °F 45% 29.92 in 10.0 mi WNW 8.1 mph 18.4 mph N/A   Scattered Clouds
2:15 PM 62.6 °F - 39.2 °F 42% 29.92 in 10.0 mi West 9.2 mph - N/A   Scattered Clouds
2:35 PM 64.4 °F - 39.2 °F 40% 29.91 in 10.0 mi NNW 10.4 mph - N/A   Scattered Clouds
2:55 PM 62.6 °F - 39.2 °F 42% 29.91 in 10.0 mi NNW 4.6 mph 16.1 mph N/A   Mostly Cloudy
3:15 PM 60.8 °F - 39.2 °F 45% 29.91 in 10.0 mi North 8.1 mph - N/A   Mostly Cloudy
3:35 PM 62.6 °F - 39.2 °F 42% 29.92 in 10.0 mi North 8.1 mph 16.1 mph N/A   Overcast
3:55 PM 62.6 °F - 37.4 °F 39% 29.92 in 10.0 mi North 11.5 mph 17.3 mph N/A   Overcast
4:15 PM 60.8 °F - 39.2 °F 45% 29.92 in 10.0 mi North 5.8 mph - N/A   Scattered Clouds
4:35 PM 60.8 °F - 39.2 °F 45% 29.93 in 10.0 mi NW 5.8 mph - N/A   Mostly Cloudy
4:55 PM 60.8 °F - 39.2 °F 45% 29.94 in 10.0 mi NNW 6.9 mph 16.1 mph N/A   Mostly Cloudy
5:15 PM 60.8 °F - 39.2 °F 45% 29.95 in 10.0 mi NNW 5.8 mph - N/A   Scattered Clouds
5:35 PM 59.0 °F - 41.0 °F 51% 29.95 in 10.0 mi NNW 4.6 mph - N/A   Scattered Clouds
5:55 PM 59.0 °F - 41.0 °F 51% 29.96 in 10.0 mi North 3.5 mph - N/A   Mostly Cloudy
6:15 PM 59.0 °F - 41.0 °F 51% 29.97 in 10.0 mi Calm Calm - N/A   Overcast
6:35 PM 57.2 °F - 41.0 °F 55% 29.98 in 10.0 mi Calm Calm - N/A   Overcast
6:55 PM 55.4 °F - 42.8 °F 63% 29.99 in 10.0 mi Calm Calm - N/A   Overcast
7:15 PM 53.6 °F - 44.6 °F 72% 30.00 in 10.0 mi Calm Calm - N/A   Overcast
7:35 PM 53.6 °F - 46.4 °F 77% 30.00 in 10.0 mi Calm Calm - N/A   Overcast
7:55 PM 53.6 °F - 44.6 °F 72% 30.01 in 10.0 mi Calm Calm - N/A   Overcast
8:15 PM 55.4 °F - 42.8 °F 63% 30.02 in 10.0 mi North 4.6 mph - N/A   Mostly Cloudy
8:35 PM 55.4 °F - 42.8 °F 63% 30.03 in 10.0 mi NNW 4.6 mph - N/A   Mostly Cloudy
8:55 PM 53.6 °F - 42.8 °F 67% 30.04 in 10.0 mi NW 6.9 mph - N/A   Scattered Clouds
9:15 PM 53.6 °F - 44.6 °F 72% 30.05 in 10.0 mi NW 3.5 mph - N/A   Mostly Cloudy
9:35 PM 53.6 °F - 44.6 °F 72% 30.05 in 10.0 mi NW 3.5 mph - N/A   Mostly Cloudy
9:55 PM 51.8 °F - 44.6 °F 76% 30.06 in 10.0 mi Calm Calm - N/A   Clear
10:15 PM 51.8 °F - 44.6 °F 76% 30.06 in 10.0 mi Calm Calm - N/A   Clear
10:35 PM 51.8 °F - 44.6 °F 76% 30.07 in 10.0 mi WNW 3.5 mph - N/A   Clear
10:55 PM 50.0 °F - 44.6 °F 82% 30.07 in 10.0 mi WNW 3.5 mph - N/A   Clear
11:15 PM 48.2 °F - 44.6 °F 87% 30.08 in 10.0 mi Calm Calm - N/A   Clear
11:35 PM 46.4 °F - 42.8 °F 87% 30.08 in 10.0 mi Calm Calm - N/A   Clear
11:55 PM 46.4 °F 45.2 °F 42.8 °F 87% 30.08 in 10.0 mi WNW 3.5 mph - N/A   Clear